Location: Bluff Heights
(33.7692°N, 118.1592°W)
Time: 18:39:56
(UTC+00:00)

Vanguard 1 Rocket - Pass Details

Date: 28 September 2021
Orbit: 650 x 4226 km, 34.3° (Epoch: 22 October)

Event Time Altitude Azimuth Distance (km) Brightness Sun altitude
Rises 02:30:55 0° 228° (SW) 3,167 10.9 -11.0°
Reaches altitude 10° 02:33:35 10° 218° (SW) 2,099 9.7 -11.6°
Maximum altitude 02:37:35 32° 154° (SSE) 1,102 7.6 -12.4°
Enters shadow 02:40:08 19° 102° (ESE) 1,609 8.0 -12.9°
